Regional Weather Roundup
Issued by NWS

Home | Current Version | Previous Version | Text Only | Print | Product List | Glossary On
Versions: 1 2 3 4 5 6 7 8 9 10 11 12 13 14 15 16 17 18 19 20 21 22 23 24 25 26 27 28 29 30 31 32 33 34 35 36 37 38 39 40 41 42 43 44 45 46 47 48 49 50
000
ASUS43 KBIS 122010
RWRND

NORTH DAKOTA REGIONAL WEATHER ROUNDUP
NATIONAL WEATHER SERVICE BISMARCK ND
200 PM CST TUE DEC 12 2017

NOTE: "FAIR" INDICATES FEW OR NO CLOUDS BELOW 12,000 FEET WITH NO
SIGNIFICANT WEATHER AND/OR OBSTRUCTIONS TO VISIBILITY.


NDZ001>003-009>011-017-122100-
NORTHWEST NORTH DAKOTA

CITY           SKY/WX    TMP DP  RH WIND       PRES   REMARKS
WILLISTON      SUNNY     45  26  47 S7        29.85F
MINOT          SUNNY     50  24  36 SW21G26   29.77F
MINOT AFB      SUNNY     47  25  41 W20       29.74F
$$

NDZ018>021-031>035-040>046-122100-
SOUTHWEST NORTH DAKOTA

CITY           SKY/WX    TMP DP  RH WIND       PRES   REMARKS
BISMARCK       SUNNY     50  28  42 W12       29.86F
DICKINSON      SUNNY     54  24  31 W18       29.85F
GARRISON         N/A     49  25  39 W20       29.81F
HETTINGER ARPT SUNNY     58  21  24 W15       29.94F
$$

NDZ004>008-012>016-024-026-027-054-122100-
NORTHEAST NORTH DAKOTA

CITY           SKY/WX    TMP DP  RH WIND       PRES   REMARKS
GRAND FORKS    CLOUDY    34  31  88 S8        29.78F
GRND FRKS AFB  PTSUNNY   37  29  71 SW6       29.77F
DEVILS LAKE    SUNNY     39  28  64 SW12      29.76F
$$

NDZ022-023-025-028>030-036>039-047>053-122100-
SOUTHEAST NORTH DAKOTA

CITY           SKY/WX    TMP DP  RH WIND       PRES   REMARKS
FARGO          PTSUNNY   36  29  75 SW10      29.84F
JAMESTOWN      SUNNY     41  28  60 W15       29.80F
$$





USA.gov is the U.S. government's official web portal to all federal, state and local government web resources and services.